Chattanooga, TN

7:14 PM EST on December 07, 2019 (GMT -0500)
Lovell

Weather History for KCHA - November, 2019

Change the Weather History Date:

Tuesday, November 12, 2019

  Actual Average Record
Temperature  
Mean Temperature 40 °F 52 °F  
Max Temperature 56 °F 64 °F 81 °F (1989)
Min Temperature 24 °F 41 °F 19 °F (1894)
Degree Days  
Heating Degree Days 25 13  
Month to date heating degree days 193 130  
Since 1 July heating degree days 278 302  
Cooling Degree Days 0 0  
Month to date cooling degree days 0 0  
Year to date cooling degree days 2413 1737  
Moisture  
Dew Point 30 °F    
Average Humidity 85    
Maximum Humidity 100    
Minimum Humidity 63    
Precipitation  
Precipitation 0.44 in 0.15 in 2.56 in (1925)
Month to date precipitation 0.70 1.70  
Year to date precipitation 54.34 44.28  
Snow  
Snow T in 0.00 in - ()
Month to date snowfall T 0.0  
Since 1 July snowfall T 0.0  
Since 1 September snowfall T 0.0  
Snow Depth 0.00 in    
Sea Level Pressure  
Sea Level Pressure 30.22 in    
Wind  
Wind Speed 15 mph ()    
Max Wind Speed 26 mph    
Max Gust Speed 33 mph    
Visibility 8.3 miles    
Events Rain    
T = Trace of Precipitation, MM = Missing Value Source: Averaged Metar Reports

Daily Weather History Graph

Daily Weather History Graph

Search for Another Location

Airport or City:

Astronomy

Nov. 12, 2019 Rise Set
Actual Time 7:12 AM EST 5:37 PM EST
Civil Twilight 6:45 AM EST 6:04 PM EST
Nautical Twilight 6:14 AM EST 6:34 PM EST
Astronomical Twilight 5:45 AM EST 7:04 PM EST
Moon 6:02 PM EST (11/12) 7:04 AM EST (11/12)
Length of Visible Light 11h 18m
Length of Day
10h 25m
Full, 100% of the Moon is Illuminated
Nov 12
Full
Nov 19
Last Quarter
Nov 26
New
Dec 4
First Quarter
Dec 12
Full

Hourly Weather History & Observations

Time (EST) Temp. Windchill Dew Point Humidity Pressure Visibility Wind Dir Wind Speed Gust Speed Precip Events Conditions
12:22 AM 55.0 °F - 53.1 °F 93% 30.01 in 9.0 mi North - - 0.00 in Rain Light Rain
12:37 AM 50.0 °F - 46.0 °F 86% 30.03 in 10.0 mi North 20.7 mph - 0.01 in Rain Light Rain
12:53 AM 48.0 °F - 45.0 °F 89% 30.02 in 9.0 mi NNW 16.1 mph - 0.02 in Rain Light Rain
1:53 AM 44.1 °F 37.1 °F 44.1 °F 100% 30.05 in 7.0 mi NNW 15.0 mph - 0.04 in Rain Light Rain
2:44 AM 42.1 °F 34.2 °F 42.1 °F 100% 30.08 in 9.0 mi NNW 16.1 mph - 0.06 in Rain Light Rain
3:37 AM 39.0 °F 29.3 °F 37.9 °F 96% 30.09 in 5.0 mi NNW 19.6 mph 26.5 mph 0.10 in Rain Heavy Rain
3:53 AM 37.9 °F 30.9 °F 37.9 °F 100% 30.10 in 5.0 mi NNW 10.4 mph - 0.14 in Rain Heavy Rain
4:03 AM 37.9 °F 29.2 °F 37.9 °F 100% 30.11 in 7.0 mi North 15.0 mph 23.0 mph 0.03 in Rain Rain
4:39 AM 37.4 °F 30.8 °F 37.4 °F 100% 30.13 in 5.0 mi NNW 9.2 mph - N/A Rain Rain
4:53 AM 37.0 °F 30.4 °F 37.0 °F 100% 30.13 in 6.0 mi NNW 9.2 mph - 0.11 in Rain Rain
5:02 AM 37.0 °F 27.7 °F 37.0 °F 100% 30.13 in 8.0 mi North 16.1 mph 21.9 mph 0.02 in Rain Rain
5:53 AM 37.0 °F 26.4 °F 36.0 °F 96% 30.16 in 6.0 mi North 20.7 mph - 0.06 in Rain Light Rain
6:02 AM 36.0 °F 25.0 °F 36.0 °F 100% 30.16 in 6.0 mi North 20.7 mph 27.6 mph 0.00 in Rain Light Rain
6:18 AM 36.0 °F 26.3 °F 36.0 °F 100% 30.18 in 7.0 mi NNW 16.1 mph - 0.00 in   Mostly Cloudy
6:20 AM 36.0 °F 27.1 °F 36.0 °F 100% 30.18 in 7.0 mi NNW 13.8 mph 23.0 mph 0.00 in   Mostly Cloudy
6:53 AM 35.1 °F 24.5 °F 35.1 °F 100% 30.19 in 7.0 mi North 18.4 mph 23.0 mph 0.00 in   Mostly Cloudy
7:02 AM 35.1 °F 23.5 °F 35.1 °F 100% 30.18 in 7.0 mi North 21.9 mph 26.5 mph N/A   Overcast
7:53 AM 33.1 °F 23.0 °F 33.1 °F 100% 30.22 in 8.0 mi North 15.0 mph 27.6 mph N/A   Overcast
8:53 AM 33.1 °F 21.2 °F 30.0 °F 89% 30.25 in 8.0 mi NNW 20.7 mph 29.9 mph N/A   Overcast
10:53 AM 30.9 °F 19.4 °F 26.1 °F 82% 30.29 in 8.0 mi NW 17.3 mph - N/A   Overcast
11:53 AM 30.9 °F 18.7 °F 25.0 °F 79% 30.30 in 8.0 mi NNW 19.6 mph - N/A   Overcast
12:53 PM 30.9 °F 18.7 °F 23.0 °F 72% 30.30 in 10.0 mi NNW 19.6 mph 28.8 mph N/A   Overcast
1:53 PM 30.9 °F 18.4 °F 21.9 °F 69% 30.31 in 10.0 mi NNW 20.7 mph 26.5 mph N/A   Mostly Cloudy
2:38 PM 30.9 °F 19.4 °F 21.0 °F 67% 30.30 in 10.0 mi NNW 17.3 mph 27.6 mph N/A   Mostly Cloudy
2:53 PM 30.9 °F 18.4 °F 19.9 °F 64% 30.31 in 10.0 mi NW 20.7 mph 26.5 mph N/A   Mostly Cloudy
3:53 PM 30.0 °F 17.2 °F 19.0 °F 64% 30.32 in 10.0 mi NW 20.7 mph 27.6 mph N/A   Mostly Cloudy
4:53 PM 28.9 °F 16.9 °F 18.0 °F 64% 30.35 in 10.0 mi NNW 17.3 mph - N/A   Mostly Cloudy
5:53 PM 27.0 °F 14.7 °F 17.1 °F 66% 30.36 in 10.0 mi NNW 16.1 mph - N/A   Mostly Cloudy
6:53 PM 26.1 °F 13.6 °F 16.0 °F 66% 30.38 in 10.0 mi NNW 16.1 mph 24.2 mph N/A   Mostly Cloudy
7:53 PM 25.0 °F 11.3 °F 15.1 °F 66% 30.39 in 10.0 mi North 18.4 mph - N/A   Scattered Clouds
8:53 PM 25.0 °F 12.2 °F 15.1 °F 66% 30.40 in 10.0 mi North 16.1 mph - N/A   Scattered Clouds
9:53 PM 25.0 °F 12.6 °F 16.0 °F 69% 30.40 in 10.0 mi North 15.0 mph - N/A   Mostly Cloudy
10:53 PM 25.0 °F 12.6 °F 15.1 °F 66% 30.41 in 10.0 mi North 15.0 mph - N/A   Scattered Clouds
11:53 PM 24.1 °F 13.1 °F 15.1 °F 69% 30.39 in 10.0 mi North 11.5 mph - N/A   Partly Cloudy